IK1QAD-3 Weather Reports


time (UTC)temp
C
wind
direction
speed
KPH
gust
KPH
rain 1hr
cm
rain 24hr
cm
rain mn
cm
humidity
%
barometer
mb
20260508011829 12 314 4.8 8.0 0.00 0.00 0.00 92 1012.7
20260508011326 12 341 3.2 8.0 0.00 0.00 0.00 92 1012.7
20260508010840 12 319 6.4 8.0 0.00 0.00 0.00 92 1012.8
20260508010336 12 336 4.8 8.0 0.00 0.00 0.00 93 1012.9
20260508005829 12 335 6.4 8.0 0.00 0.00 0.00 92 1012.9
20260508005326 12 324 4.8 8.0 0.00 0.00 0.00 92 1013.0
20260508004844 12 325 4.8 8.0 0.00 0.00 0.00 92 1012.9
20260508004338 12 339 6.4 8.0 0.00 0.00 0.00 92 1013.0
20260508003838 12 329 6.4 8.0 0.00 0.00 0.00 92 1013.1
20260508003331 12 333 6.4 8.0 0.00 0.00 0.00 92 1013.2
20260508002826 12 331 4.8 8.0 0.00 0.00 0.00 92 1013.3
20260508002342 12 329 4.8 8.0 0.00 0.00 0.00 92 1013.3
20260508001834 12 331 4.8 8.0 0.00 0.00 0.00 92 1013.4
20260508001333 12 328 4.8 8.0 0.00 0.00 0.00 92 1013.4
20260508000827 12 312 4.8 8.0 0.00 0.00 0.00 91 1013.5
20260508000324 12 321 6.4 8.0 0.00 0.00 0.00 91 1013.5
20260507235844 12 16 3.2 6.4 0.00 0.00 0.00 91 1013.6
20260507235341 12 360 3.2 6.4 0.00 0.00 0.00 91 1013.5
20260507234840 12 328 3.2 6.4 0.00 0.00 0.00 91 1013.6
20260507234332 12 336 4.8 8.0 0.00 0.00 0.00 91 1013.7
20260507233830 12 315 4.8 8.0 0.00 0.00 0.00 91 1013.8
20260507233328 13 322 6.4 8.0 0.00 0.00 0.00 90 1013.8
20260507232838 13 317 6.4 8.0 0.00 0.00 0.00 90 1013.9
20260507232336 13 13 3.2 6.4 0.00 0.00 0.00 90 1014.0
20260507231836 13 336 4.8 8.0 0.00 0.00 0.00 90 1013.9
20260507231334 13 344 4.8 6.4 0.00 0.00 0.00 90 1014.0
20260507230827 13 322 4.8 8.0 0.00 0.00 0.00 90 1014.1
20260507230324 13 351 4.8 8.0 0.00 0.00 0.00 90 1014.2
20260507225842 13 327 4.8 8.0 0.00 0.00 0.00 90 1014.3
20260507225334 13 336 4.8 8.0 0.00 0.00 0.00 90 1014.3
20260507224833 13 331 4.8 8.0 0.00 0.00 0.00 89 1014.3
20260507224328 13 338 4.8 9.7 0.00 0.00 0.00 89 1014.2
20260507223844 13 42 4.8 9.7 0.00 0.00 0.00 90 1014.2
20260507223343 13 338 3.2 6.4 0.00 0.00 0.00 90 1014.2
20260507222834 13 320 3.2 8.0 0.00 0.00 0.00 90 1014.2
20260507222333 13 323 3.2 6.4 0.00 0.00 0.00 90 1014.2
20260507221828 13 327 3.2 6.4 0.00 0.00 0.00 91 1014.2
20260507221326 13 355 4.8 6.4 0.00 0.00 0.00 90 1014.2
20260507220842 13 334 4.8 6.4 0.00 0.00 0.00 90 1014.2
20260507220335 13 30 4.8 6.4 0.00 0.00 0.00 90 1014.2
20260507215827 13 330 4.8 8.0 0.00 0.00 0.00 90 1014.2
20260507215343 13 331 4.8 8.0 0.00 0.00 0.00 89 1014.1
20260507214842 14 329 4.8 8.0 0.00 0.00 0.00 88 1014.1
20260507214340 14 336 4.8 8.0 0.00 0.00 0.00 88 1014.1
20260507213835 14 344 3.2 8.0 0.00 0.00 0.00 88 1014.0
20260507213332 14 360 3.2 8.0 0.00 0.00 0.00 88 1013.9
20260507212825 14 355 4.8 8.0 0.00 0.00 0.00 88 1014.0
20260507212343 14 355 3.2 4.8 0.00 0.00 0.00 88 1013.9
20260507211842 14 355 1.6 4.8 0.00 0.00 0.00 88 1014.0
20260507211338 14 17 1.6 6.4 0.00 0.00 0.00 88 1013.9
20260507210838 14 342 3.2 4.8 0.00 0.00 0.00 89 1013.9
20260507210332 14 355 1.6 4.8 0.00 0.00 0.00 89 1013.9
20260507205826 14 338 4.8 8.0 0.00 0.00 0.00 88 1013.8
20260507205324 14 342 3.2 9.7 0.00 0.00 0.00 88 1013.8
20260507204841 14 355 3.2 8.0 0.00 0.00 0.00 88 1013.7
20260507204341 14 355 3.2 8.0 0.00 0.00 0.00 89 1013.8
20260507203836 14 23 3.2 8.0 0.00 0.00 0.00 89 1013.8
20260507203336 13 355 4.8 8.0 0.00 0.00 0.00 90 1013.8
20260507202834 13 329 3.2 6.4 0.00 0.00 0.00 91 1013.8
20260507202332 13 345 3.2 6.4 0.00 0.00 0.00 91 1013.8
20260507201829 14 323 4.8 6.4 0.00 0.00 0.00 90 1013.8
20260507201328 14 336 4.8 6.4 0.00 0.00 0.00 89 1013.9
20260507200842 14 355 3.2 8.0 0.00 0.00 0.00 89 1013.8
20260507200341 14 11 3.2 8.0 0.00 0.00 0.00 88 1013.8
20260507195830 15 11 4.8 8.0 0.00 0.00 0.00 89 1013.7
20260507195326 15 319 3.2 8.0 0.00 0.00 0.00 89 1013.6
20260507194826 15 340 3.2 6.4 0.00 0.00 0.00 90 1013.6
20260507194338 15 336 3.2 4.8 0.00 0.00 0.00 90 1013.5
20260507193835 15 331 1.6 6.4 0.00 0.00 0.00 90 1013.5
20260507193328 15 321 3.2 6.4 0.00 0.00 0.00 89 1013.4
20260507192825 15 334 3.2 4.8 0.00 0.00 0.00 89 1013.4
20260507192339 15 329 3.2 4.8 0.00 0.00 0.00 89 1013.5
20260507191839 15 302 1.6 4.8 0.00 0.00 0.00 88 1013.3
20260507191336 15 342 1.6 6.4 0.00 0.00 0.00 89 1013.2
20260507190828 15 329 3.2 6.4 0.00 0.00 0.00 89 1013.2
20260507190326 15 351 3.2 4.8 0.00 0.00 0.00 89 1013.2
20260507185835 15 343 0.0 4.8 0.00 0.00 0.00 88 1013.1
20260507185334 15 349 3.2 6.4 0.00 0.00 0.00 88 1013.2
20260507184831 16 325 4.8 6.4 0.00 0.00 0.00 86 1013.2
20260507184326 16 329 3.2 4.8 0.00 0.00 0.00 86 1013.1
20260507183824 16 50 3.2 6.4 0.00 0.00 0.00 86 1013.3
20260507183340 16 46 3.2 8.0 0.00 0.00 0.00 85 1013.1
20260507182833 16 71 3.2 8.0 0.00 0.00 0.00 85 1013.2
20260507182332 16 74 1.6 8.0 0.00 0.00 0.00 85 1013.2
20260507181827 16 69 3.2 8.0 0.00 0.00 0.00 85 1013.1
20260507181341 16 342 1.6 4.8 0.00 0.00 0.00 85 1013.1
20260507180834 16 351 1.6 4.8 0.00 0.00 0.00 85 1013.0
20260507180331 16 360 1.6 3.2 0.00 0.00 0.00 85 1013.1
20260507175842 16 329 1.6 4.8 0.00 0.00 0.00 85 1013.1
20260507175336 16 323 1.6 4.8 0.00 0.00 0.00 85 1013.0
20260507174835 17 19 1.6 3.2 0.00 0.00 0.00 84 1013.0
20260507174328 17 29 1.6 4.8 0.00 0.00 0.00 84 1013.0
20260507173826 17 349 1.6 4.8 0.00 0.00 0.00 83 1012.9
20260507173325 17 63 1.6 4.8 0.00 0.00 0.00 83 1013.0
20260507172840 17 57 0.0 3.2 0.00 0.00 0.00 83 1013.0
20260507172339 17 36 1.6 6.4 0.00 0.00 0.00 82 1013.0
20260507171830 17 42 3.2 6.4 0.00 0.00 0.00 82 1013.1
20260507171329 17 82 3.2 4.8 0.00 0.00 0.00 82 1013.1
20260507170828 17 95 0.0 4.8 0.00 0.00 0.00 82 1013.0
20260507170341 17 82 1.6 4.8 0.00 0.00 0.00 81 1013.0
20260507165834 17 59 1.6 4.8 0.00 0.00 0.00 81 1013.0
20260507165327 17 210 0.0 4.8 0.00 0.00 0.00 82 1012.9
20260507164826 17 210 1.6 4.8 0.00 0.00 0.00 81 1013.0
20260507164325 17 210 3.2 4.8 0.00 0.00 0.00 81 1013.0
20260507163837 17 82 1.6 9.7 0.00 0.00 0.00 81 1013.0
20260507163335 17 117 3.2 9.7 0.00 0.00 0.00 81 1013.0
20260507162830 17 174 1.6 6.4 0.00 0.00 0.00 82 1012.9
20260507162329 17 113 1.6 8.0 0.00 0.00 0.00 82 1012.8
20260507161826 17 82 4.8 11.3 0.00 0.00 0.00 81 1012.9
20260507161340 17 75 4.8 11.3 0.00 0.00 0.00 81 1012.9
20260507160840 17 66 0.0 8.0 0.00 0.00 0.00 80 1012.9
20260507160333 17 100 4.8 9.7 0.00 0.00 0.00 81 1012.9
20260507155831 17 102 4.8 9.7 0.00 0.00 0.00 80 1012.9
20260507155332 17 160 3.2 11.3 0.00 0.00 0.00 79 1012.9
20260507154827 17 113 4.8 9.7 0.00 0.00 0.00 81 1012.8
20260507154327 17 36 1.6 11.3 0.00 0.00 0.00 81 1012.8
20260507153824 17 107 6.4 11.3 0.00 0.00 0.00 79 1012.8
20260507153548 18 91 4.8 11.3 0.00 0.00 0.00 79 1012.8
20260507153341 18 91 4.8 11.3 0.00 0.00 0.00 79 1012.8
20260507153140 18 96 6.4 11.3 0.00 0.00 0.00 79 1012.7
20260507152839 18 96 6.4 11.3 0.00 0.00 0.00 79 1012.7
20260507152339 18 57 6.4 12.9 0.00 0.00 0.00 79 1012.8
20260507152333 18 103 1.6 12.9 0.00 0.00 0.00 79 1012.8
20260507151833 18 57 6.4 12.9 0.00 0.00 0.00 79 1012.8
20260507151333 18 134 3.2 12.9 0.00 0.00 0.00 80 1012.8
20260507150828 17 109 6.4 12.9 0.00 0.00 0.00 79 1012.8
20260507150326 17 182 1.6 12.9 0.00 0.00 0.00 79 1012.9
20260507145838 17 140 3.2 12.9 0.00 0.00 0.00 80 1012.9
20260507145337 17 101 3.2 12.9 0.00 0.00 0.00 80 1013.0
20260507144835 17 97 4.8 12.9 0.00 0.00 0.00 80 1013.0
20260507144329 17 148 4.8 11.3 0.00 0.00 0.00 81 1012.9
20260507143826 17 105 6.4 12.9 0.00 0.00 0.00 81 1013.0
20260507143340 17 111 6.4 12.9 0.00 0.00 0.00 79 1013.0
20260507142837 17 107 4.8 11.3 0.00 0.00 0.00 79 1012.9
20260507142333 18 46 6.4 12.9 0.00 0.00 0.00 78 1012.9
20260507141825 18 111 6.4 14.5 0.00 0.00 0.00 77 1012.8
20260507141325 18 116 4.8 12.9 0.00 0.00 0.00 76 1012.9
20260507140839 17 94 6.4 16.1 0.00 0.00 0.00 77 1013.0
20260507140337 17 112 8.0 16.1 0.00 0.00 0.00 75 1013.0
20260507135828 17 129 8.0 16.1 0.00 0.00 0.00 79 1013.0
20260507135325 17 126 11.3 17.7 0.00 0.00 0.00 80 1013.1
20260507134841 17 90 11.3 19.3 0.00 0.00 0.00 79 1013.2
20260507134334 17 95 9.7 22.5 0.00 0.00 0.00 80 1013.3
20260507133831 17 106 12.9 22.5 0.00 0.00 0.00 80 1013.3
20260507133331 17 115 12.9 22.5 0.00 0.00 0.00 80 1013.4
20260507132824 17 115 12.9 20.9 0.00 0.00 0.00 80 1013.4
20260507132324 17 115 6.4 19.3 0.00 0.00 0.00 80 1013.5
20260507131838 17 69 6.4 17.7 0.00 0.00 0.00 81 1013.5
20260507131337 17 58 9.7 17.7 0.00 0.00 0.00 81 1013.4
20260507130834 17 155 8.0 17.7 0.00 0.00 0.00 81 1013.4
20260507130331 17 114 6.4 17.7 0.00 0.00 0.00 81 1013.2
20260507125827 17 103 8.0 24.1 0.00 0.00 0.00 80 1013.3
20260507125342 17 109 12.9 24.1 0.00 0.00 0.00 79 1013.1
20260507124839 18 137 9.7 19.3 0.00 0.00 0.00 78 1013.1
20260507124337 18 117 6.4 20.9 0.00 0.00 0.00 79 1013.1
20260507123828 18 99 9.7 20.9 0.00 0.00 0.00 79 1013.0
20260507123329 18 118 14.5 20.9 0.00 0.00 0.00 77 1013.0
20260507122841 18 80 8.0 17.7 0.00 0.00 0.00 77 1013.0
20260507122341 18 58 9.7 20.9 0.00 0.00 0.00 77 1012.9
20260507121838 18 63 11.3 20.9 0.00 0.00 0.00 78 1012.8
20260507121333 18 148 12.9 20.9 0.00 0.00 0.00 76 1012.9
20260507120831 18 109 11.3 20.9 0.00 0.00 0.00 77 1012.9
20260507120324 17 99 11.3 19.3 0.00 0.00 0.00 78 1013.0
20260507115841 17 86 8.0 22.5 0.00 0.00 0.00 78 1012.9
20260507115340 17 103 14.5 22.5 0.00 0.00 0.00 78 1012.8
20260507114836 17 85 9.7 19.3 0.00 0.00 0.00 79 1012.9
20260507114335 17 71 8.0 19.3 0.00 0.00 0.00 80 1013.0
20260507113828 17 88 8.0 16.1 0.00 0.00 0.00 80 1013.0
20260507113325 17 94 8.0 20.9 0.00 0.00 0.00 80 1013.0
20260507112842 17 74 6.4 20.9 0.00 0.00 0.00 80 1013.1
20260507112339 17 106 11.3 19.3 0.00 0.00 0.00 80 1013.1
20260507111839 17 133 9.7 19.3 0.00 0.00 0.00 81 1013.1
20260507111332 17 93 9.7 16.1 0.00 0.00 0.00 82 1013.3
20260507110831 17 30 8.0 19.3 0.00 0.00 0.00 82 1013.3
20260507110329 17 65 11.3 20.9 0.00 0.00 0.00 81 1013.2
20260507105840 17 112 8.0 20.9 0.00 0.00 0.00 83 1013.1
20260507105336 17 106 14.5 20.9 0.00 0.00 0.00 83 1013.0
20260507104831 17 95 12.9 25.7 0.00 0.00 0.00 83 1013.0
20260507104326 17 132 12.9 25.7 0.00 0.00 0.00 83 1013.1
20260507103844 17 94 12.9 24.1 0.00 0.00 0.00 80 1013.1
20260507103341 17 96 16.1 24.1 0.00 0.00 0.00 80 1013.1
20260507102843 17 103 12.9 25.7 0.00 0.00 0.00 81 1013.1
20260507102339 17 92 16.1 25.7 0.00 0.00 0.00 80 1013.2
20260507101835 17 88 17.7 25.7 0.00 0.00 0.00 80 1013.1
20260507101333 18 30 16.1 29.0 0.00 0.00 0.00 80 1013.3
20260507100826 18 96 16.1 29.0 0.00 0.00 0.00 80 1013.2
20260507100326 18 69 16.1 25.7 0.00 0.00 0.00 79 1013.2
20260507095836 18 59 16.1 29.0 0.00 0.00 0.00 80 1013.1
20260507095334 18 86 14.5 29.0 0.00 0.00 0.00 80 1012.9
20260507094829 18 147 16.1 29.0 0.00 0.00 0.00 80 1013.0
20260507094324 18 117 16.1 29.0 0.00 0.00 0.00 80 1012.9
20260507093844 17 123 12.9 25.7 0.00 0.00 0.00 82 1012.9
20260507093339 17 107 9.7 24.1 0.00 0.00 0.00 81 1012.9
20260507092837 17 80 8.0 25.7 0.00 0.00 0.00 81 1013.0
20260507092337 18 101 9.7 25.7 0.00 0.00 0.00 79 1012.9
20260507091829 18 113 11.3 19.3 0.00 0.00 0.00 77 1012.7
20260507091329 19 123 6.4 19.3 0.00 0.00 0.00 76 1012.7
20260507090843 18 103 12.9 19.3 0.00 0.00 0.00 75 1012.7
20260507090343 18 59 8.0 19.3 0.00 0.00 0.00 77 1012.6
20260507085840 18 123 11.3 19.3 0.00 0.00 0.00 75 1012.5
20260507085334 18 103 12.9 19.3 0.00 0.00 0.00 75 1012.5
20260507084833 18 136 9.7 19.3 0.00 0.00 0.00 75 1012.6
20260507084328 18 144 8.0 19.3 0.00 0.00 0.00 75 1012.5
20260507083825 18 104 12.9 19.3 0.00 0.00 0.00 74 1012.4
20260507083324 18 71 8.0 19.3 0.00 0.00 0.00 72 1012.4
20260507082838 19 109 8.0 17.7 0.00 0.00 0.00 71 1012.3
20260507082336 19 126 8.0 19.3 0.00 0.00 0.00 71 1012.2
20260507081831 19 113 9.7 19.3 0.00 0.00 0.00 69 1012.2
20260507081331 19 61 8.0 17.7 0.00 0.00 0.00 69 1012.3
20260507080829 19 135 6.4 16.1 0.00 0.00 0.00 68 1012.2
20260507080342 19 111 6.4 17.7 0.00 0.00 0.00 69 1012.2
20260507075838 18 96 9.7 17.7 0.00 0.00 0.00 68 1012.2
20260507075331 18 166 6.4 11.3 0.00 0.00 0.00 70 1012.1
20260507074826 18 164 4.8 8.0 0.00 0.00 0.00 70 1012.2
20260507074325 18 294 3.2 9.7 0.00 0.00 0.00 69 1012.2
20260507073839 18 164 1.6 9.7 0.00 0.00 0.00 70 1012.2
20260507073337 18 38 1.6 9.7 0.00 0.00 0.00 70 1012.2
20260507072830 18 85 4.8 11.3 0.00 0.00 0.00 70 1012.2
20260507072326 18 150 4.8 11.3 0.00 0.00 0.00 72 1012.1
20260507071824 18 285 1.6 4.8 0.00 0.00 0.00 72 1012.2
20260507071339 18 66 1.6 4.8 0.00 0.00 0.00 73 1012.2
20260507070836 17 210 1.6 4.8 0.00 0.00 0.00 74 1012.2
20260507070327 17 128 1.6 6.4 0.00 0.00 0.00 75 1012.2
20260507065824 17 129 4.8 6.4 0.00 0.00 0.00 75 1012.1
20260507065344 17 183 1.6 9.7 0.00 0.00 0.00 76 1012.0
20260507064837 17 128 1.6 9.7 0.00 0.00 0.00 76 1012.0
20260507064334 17 115 4.8 6.4 0.00 0.00 0.00 75 1011.9
20260507063830 17 135 3.2 6.4 0.00 0.00 0.00 76 1011.9
20260507063327 16 175 0.0 11.3 0.00 0.00 0.00 77 1011.8
20260507062843 16 138 6.4 11.3 0.00 0.00 0.00 76 1011.9
20260507062336 17 203 3.2 4.8 0.00 0.00 0.00 75 1011.8
20260507061838 17 174 1.6 3.2 0.00 0.00 0.00 75 1011.8
20260507061330 17 81 0.0 0.0 0.00 0.00 0.00 77 1011.8
20260507060828 16 69 0.0 0.0 0.00 0.00 0.00 78 1011.8
20260507060328 16 34 0.0 3.2 0.00 0.00 0.00 77 1011.9
20260507055836 16 34 0.0 8.0 0.00 0.00 0.00 79 1011.8
20260507055331 16 37 4.8 8.0 0.00 0.00 0.00 80 1011.8
20260507054845 15 57 3.2 4.8 0.00 0.00 0.00 81 1011.7
20260507054336 15 65 3.2 4.8 0.00 0.00 0.00 82 1011.6
20260507053833 15 327 1.6 3.2 0.00 0.00 0.00 82 1011.5
20260507053328 14 26 1.6 4.8 0.00 0.00 0.00 84 1011.6
20260507052841 13 332 3.2 4.8 0.00 0.00 0.00 84 1011.4
20260507052329 13 328 3.2 6.4 0.00 0.00 0.00 84 1011.5
20260507051826 13 325 4.8 6.4 0.00 0.00 0.00 85 1011.3
20260507051344 13 341 4.8 6.4 0.00 0.00 0.00 86 1011.3
20260507050841 12 324 3.2 8.0 0.00 0.00 0.00 87 1011.2
20260507050342 12 16 4.8 8.0 0.00 0.00 0.00 88 1011.3
20260507045837 12 312 6.4 8.0 0.00 0.61 0.00 88 1011.2
20260507045337 12 325 4.8 9.7 0.00 0.61 0.00 88 1011.2
20260507044834 12 342 4.8 9.7 0.00 0.61 0.00 88 1011.0
20260507044328 12 327 6.4 9.7 0.00 0.61 0.00 87 1011.1
20260507043828 12 313 6.4 12.9 0.00 0.61 0.00 86 1011.0
20260507043343 12 322 6.4 12.9 0.00 0.61 0.00 86 1011.0
20260507042840 12 330 6.4 12.9 0.00 0.61 0.00 87 1011.0
20260507042340 12 338 3.2 9.7 0.00 0.61 0.00 88 1011.1
20260507041833 12 360 4.8 9.7 0.00 0.61 0.00 88 1011.1
20260507041330 12 320 4.8 8.0 0.00 0.61 0.00 88 1011.1
20260507040843 12 331 4.8 8.0 0.00 0.61 0.00 88 1010.9
20260507040344 12 323 4.8 8.0 0.00 0.61 0.00 87 1010.9
20260507035838 12 329 4.8 8.0 0.00 0.61 0.00 86 1010.9
20260507035332 12 329 4.8 8.0 0.00 0.61 0.00 87 1010.8
20260507034830 12 346 4.8 9.7 0.00 0.61 0.00 88 1010.8
20260507034324 12 355 4.8 9.7 0.00 0.61 0.00 87 1010.8
20260507033844 12 322 6.4 14.5 0.00 0.61 0.00 86 1010.8
20260507033342 12 321 8.0 14.5 0.00 0.61 0.00 86 1010.7
20260507032837 12 329 3.2 16.1 0.00 0.61 0.00 86 1010.7
20260507032335 12 327 4.8 12.9 0.00 0.61 0.00 86 1010.7
20260507031828 12 326 6.4 12.9 0.00 0.61 0.00 86 1010.6
20260507031325 12 10 6.4 14.5 0.00 0.61 0.00 87 1010.7
20260507030842 12 12 3.2 8.0 0.00 0.61 0.00 88 1010.6
20260507030337 12 9 4.8 12.9 0.00 0.61 0.00 88 1010.6
20260507025833 12 342 4.8 14.5 0.00 0.61 0.00 89 1010.5
20260507025326 12 327 3.2 14.5 0.00 0.61 0.00 90 1010.6
20260507024825 12 350 4.8 8.0 0.00 0.61 0.00 91 1010.6
20260507024342 12 348 4.8 8.0 0.00 0.61 0.00 91 1010.6
20260507023836 12 319 3.2 8.0 0.00 0.61 0.00 91 1010.6
20260507023333 12 325 4.8 8.0 0.00 0.61 0.00 91 1010.7
20260507022827 12 335 3.2 6.4 0.00 0.61 0.00 91 1010.6
20260507022325 12 26 3.2 8.0 0.00 0.61 0.00 91 1010.6
20260507021824 12 341 3.2 8.0 0.00 0.61 0.00 91 1010.5
20260507021340 12 322 6.4 8.0 0.00 0.61 0.00 91 1010.5
20260507020836 12 321 4.8 8.0 0.00 0.61 0.00 91 1010.5
20260507020331 12 340 3.2 6.4 0.00 0.61 0.00 91 1010.5
20260507015843 12 324 4.8 6.4 0.00 0.61 0.00 91 1010.5
20260507015343 12 344 1.6 6.4 0.00 0.61 0.00 90 1010.4
20260507014839 12 328 3.2 6.4 0.00 0.61 0.00 90 1010.3
20260507014341 12 332 3.2 6.4 0.00 0.61 0.00 90 1010.3
20260507013836 12 340 3.2 6.4 0.00 0.61 0.00 89 1010.3
20260507013334 12 360 4.8 6.4 0.00 0.61 0.00 89 1010.2
20260507012831 13 342 3.2 8.0 0.00 0.61 0.00 89 1010.2
20260507012343 13 336 6.4 9.7 0.00 0.61 0.00 89 1010.3